Theta_e
352 355 354 350 358 361 367 365 358 356 357 355 355 355 358 358 361 358 351 353 351 351 351 351 351 352 352 350 349 347 348 349 346 345 351 353 354 354 354 353 353 351 350 349 352 353 353 353 352
349 349 344 349 360 367 367 358 361 356 356 353 354 355 357 362 354 354 354 352 352 352 351 351 351 350 352 352 350 350 352 352 352 351 352 350 350 349 350 350 350 350 350 349 349 349 350 351 352
348 349 346 355 362 367 363 357 355 355 354 353 358 354 356 357 352 352 353 352 352 352 351 351 350 351 352 352 349 348 351 351 352 352 350 354 354 353 355 353 352 352 350 348 350 351 351 351 351
348 350 353 357 366 364 361 359 357 355 352 354 356 359 354 353 352 354 354 353 352 353 350 352 351 353 353 353 352 353 354 353 351 350 351 353 354 353 353 353 353 352 352 353 351 349 346 349 349
345 348 356 362 362 361 357 353 357 356 356 356 357 359 355 352 353 354 354 353 353 352 350 351 350 352 353 353 354 353 353 354 353 350 353 353 352 352 352 344 351 350 349 350 350 348 346 346 344
353 349 354 354 355 358 356 354 355 355 359 358 357 357 354 352 353 354 353 353 351 350 351 349 351 351 352 354 354 353 355 355 353 353 352 351 348 344 348 344 344 349 351 349 342 341 341 341 341
353 353 356 351 354 356 355 350 355 357 357 359 354 357 352 351 352 352 351 351 350 348 349 349 351 352 353 352 353 353 353 353 352 352 352 353 347 337 336 335 335 339 345 344 340 341 340 340 340
349 349 351 350 352 357 354 351 353 354 357 353 351 357 354 349 350 349 350 349 349 347 347 349 349 351 351 350 354 353 351 349 350 350 351 349 347 346 342 334 335 336 338 342 346 347 348 341 341
343 346 348 351 352 350 352 348 346 346 355 354 353 351 349 349 348 350 352 354 353 350 348 348 350 351 349 350 351 352 352 351 349 349 347 346 344 343 341 337 337 335 337 338 345 347 347 348 347
341 342 345 345 348 348 347 345 345 355 355 354 354 350 349 349 350 350 350 352 353 354 349 348 350 350 349 350 350 351 351 351 348 344 346 345 343 342 338 337 342 340 339 338 341 344 349 350 346
339 343 341 347 346 348 347 346 349 354 357 353 355 352 351 351 350 349 349 349 349 351 352 348 346 348 347 345 345 350 351 349 347 346 342 340 342 340 338 336 339 341 344 340 338 340 339 342 343
339 338 342 347 349 347 348 348 348 352 354 351 351 350 350 352 351 350 349 348 348 349 348 343 344 345 344 348 346 349 349 348 346 343 344 345 344 343 341 338 337 340 339 337 335 337 339 340 342
336 338 340 347 348 346 346 348 346 348 352 351 351 351 350 350 350 351 351 350 350 348 347 346 345 344 343 346 347 350 348 346 344 346 341 342 344 343 343 342 337 335 337 335 333 334 337 337 342
332 338 336 342 348 348 349 346 346 354 350 352 354 352 350 350 350 350 351 351 351 351 349 347 346 346 346 346 347 347 347 346 341 345 341 342 342 343 344 344 342 338 333 333 333 333 333 335 339
332 336 335 335 343 347 346 347 346 353 350 351 355 353 351 350 351 351 351 351 351 351 351 350 348 347 347 347 347 347 347 346 342 341 340 342 342 343 344 345 344 343 343 339 338 337 335 343 342
332 333 335 335 339 345 343 347 345 352 352 351 350 351 353 351 350 351 351 350 350 350 350 351 350 349 348 346 347 349 349 347 343 343 345 343 343 344 344 346 346 344 344 343 342 342 341 345 346
331 333 337 338 335 345 336 334 350 352 352 352 351 349 349 348 348 349 350 350 350 350 349 350 351 350 348 348 348 349 350 348 347 346 346 343 343 344 344 344 345 345 347 346 344 342 343 345 344
335 333 335 338 335 336 334 331 354 353 352 352 351 349 349 348 345 345 348 349 349 350 350 350 350 350 349 348 349 349 349 348 348 347 346 345 343 345 343 344 346 345 347 347 346 344 344 344 344
331 330 332 335 332 332 329 326 353 354 353 352 350 349 348 348 345 343 346 346 348 348 348 350 350 350 349 348 348 348 348 348 348 348 348 347 345 345 343 344 345 342 345 346 348 347 347 346 347
327 327 328 329 330 327 327 330 339 351 353 352 351 349 348 347 343 342 343 346 346 347 348 350 350 350 350 348 348 348 348 349 349 349 350 349 347 346 343 342 344 342 343 346 347 347 347 348 346
326 328 329 329 327 326 330 331 342 340 340 345 350 349 347 346 344 345 347 345 346 346 348 349 350 350 350 349 349 350 351 350 350 350 349 349 346 346 345 343 345 344 342 345 346 347 346 346 345
328 328 328 329 325 327 326 328 339 341 341 349 348 349 349 348 345 348 349 348 347 347 347 348 349 350 351 351 352 352 351 351 351 350 350 349 348 346 347 346 345 345 345 343 345 346 343 344 345
327 328 327 328 325 326 332 336 335 336 343 354 356 354 351 349 350 352 350 348 348 349 348 348 349 350 351 351 351 351 352 352 352 351 351 350 349 350 349 348 346 343 344 344 345 344 345 346 346
326 325 323 325 322 325 330 336 340 343 342 344 351 353 350 347 344 339 340 340 341 348 352 351 352 351 352 352 353 352 353 353 354 353 352 351 351 351 351 350 347 343 345 347 345 343 342 344 346
322 322 325 327 336 333 334 337 337 340 338 341 344 346 346 346 346 345 341 342 341 341 350 358 355 352 347 338 338 348 354 353 354 350 353 353 352 351 351 351 352 349 345 345 347 344 344 343 344
324 322 323 329 329 340 338 342 341 342 348 347 345 350 352 349 344 344 343 342 342 342 342 361 354 344 338 332 335 336 348 351 347 347 355 354 353 352 351 351 351 349 348 348 348 347 346 346 345
323 323 321 323 333 339 341 340 339 344 345 347 352 352 353 351 349 346 349 352 350 346 343 346 340 341 339 336 335 339 341 353 354 353 355 357 355 353 351 351 351 350 347 342 341 339 342 347 348
324 321 325 323 341 346 346 346 343 346 350 348 354 353 353 349 347 346 349 350 349 345 347 345 342 346 343 341 339 337 339 354 356 355 355 355 356 354 353 352 351 348 341 336 341 343 346 347 345
326 329 324 325 334 341 343 343 336 342 348 345 353 350 348 347 345 344 347 349 351 353 353 353 351 348 348 342 340 340 347 347 356 355 355 354 354 353 353 351 347 346 343 336 343 347 347 339 338
330 332 328 332 336 338 336 338 334 339 344 342 347 343 341 342 342 345 343 346 346 348 352 352 351 354 352 350 349 351 353 354 354 354 354 353 353 352 351 351 350 348 345 335 339 346 348 347 344
Wind_Speed
6 3 2 2 4 5 3 5 3 1 3 4 4 4 9 8 3 2 18 14 27 27 25 25 25 25 26 27 26 27 27 27 28 27 25 23 22 21 20 20 17 18 16 15 15 16 16 15 15
6 3 3 2 5 4 4 6 7 4 6 8 7 4 5 4 5 12 12 26 30 30 28 27 25 26 24 25 27 27 26 25 25 24 24 25 23 21 21 20 18 17 17 16 15 14 13 15 14
1 4 3 4 2 3 3 3 6 4 5 2 4 6 4 3 13 12 19 32 31 30 30 27 26 26 24 24 26 27 25 25 26 26 25 22 22 22 20 20 18 17 16 15 13 12 13 13 13
3 4 4 5 0 3 4 3 4 4 3 7 8 7 5 7 14 13 31 31 31 30 30 26 25 24 23 22 23 23 22 22 23 23 23 22 20 18 20 18 17 17 16 15 12 9 9 10 10
1 3 4 3 2 3 5 6 4 2 4 6 3 5 4 4 13 31 29 28 31 30 29 26 25 23 21 21 21 21 20 20 21 21 21 20 20 17 17 17 15 14 14 13 10 8 7 8 8
2 3 4 2 1 1 3 10 4 2 6 6 7 6 3 20 30 27 27 30 30 31 27 26 23 23 22 21 21 21 20 19 18 18 19 19 19 17 15 15 13 12 11 11 8 6 5 4 5
1 4 2 0 1 2 3 2 4 4 5 4 6 4 3 12 21 28 27 29 29 29 28 27 25 23 22 22 21 21 20 19 19 18 17 16 17 15 12 8 8 9 9 8 7 5 4 2 1
3 3 4 3 5 3 3 3 4 4 2 8 12 6 6 13 22 23 24 27 28 27 29 28 27 25 24 24 21 20 19 19 19 19 18 17 15 12 7 4 8 8 8 7 6 4 1 1 1
3 3 2 4 5 3 7 4 2 2 10 2 6 7 15 28 26 23 21 20 20 22 28 29 28 27 26 24 22 19 18 19 19 19 19 18 17 11 11 10 8 9 10 9 7 5 5 3 3
5 4 8 7 6 5 7 5 7 4 6 4 11 19 28 32 28 24 21 20 23 23 29 30 29 28 28 25 23 22 21 19 19 18 17 17 17 14 13 12 9 9 10 10 8 5 5 5 6
8 6 6 6 5 5 7 5 4 9 2 5 18 21 20 25 23 21 22 26 31 29 28 30 30 30 28 29 28 26 24 22 20 18 17 16 14 13 14 15 14 15 13 11 9 7 6 6 8
6 8 8 6 5 6 7 7 5 5 6 13 20 23 20 20 16 22 22 24 24 29 33 33 32 31 31 29 28 28 27 25 22 19 16 17 15 12 13 13 14 21 22 17 11 9 8 8 9
6 5 7 8 8 5 8 4 5 4 10 15 17 20 22 19 22 25 25 24 24 27 32 33 33 33 32 31 30 30 30 28 24 22 18 16 17 15 11 13 13 19 21 20 17 14 11 11 9
3 4 6 7 7 4 6 2 3 4 14 17 18 18 20 21 24 20 21 22 25 29 32 33 35 34 33 34 33 32 31 29 25 25 18 17 16 15 16 13 13 15 22 21 19 18 15 16 16
3 6 2 6 8 6 7 3 5 13 16 19 18 16 17 19 23 25 29 27 31 33 35 35 34 35 35 34 32 30 30 26 24 25 22 18 17 14 14 17 16 16 16 17 18 18 15 15 13
5 5 4 5 10 3 9 8 5 16 19 17 17 15 17 17 25 28 29 30 30 30 33 36 34 35 35 34 33 30 28 28 22 23 24 21 20 17 16 16 17 17 15 15 18 16 16 15 15
6 3 3 3 10 7 5 4 7 17 17 17 16 15 16 16 19 27 30 32 33 37 34 36 37 36 37 36 34 32 30 30 25 23 22 21 21 19 18 18 16 17 16 16 17 18 16 17 16
5 5 4 6 6 8 8 6 10 18 17 18 16 15 14 14 17 26 29 32 33 39 37 37 38 39 38 34 31 29 30 29 27 23 22 21 22 19 19 19 18 15 14 14 13 16 18 20 18
5 5 10 4 5 6 7 3 10 16 12 12 13 14 15 15 9 13 24 28 28 33 35 37 36 38 37 33 31 31 33 32 27 24 22 18 20 21 20 20 18 13 14 13 11 11 12 15 15
5 7 2 3 1 3 1 7 3 14 16 16 16 15 15 7 6 10 18 21 27 37 39 35 35 36 37 37 33 31 30 26 25 22 21 21 20 20 21 22 19 14 14 13 12 11 10 11 11
3 3 2 4 2 6 3 5 4 4 2 8 13 9 6 9 9 9 10 23 25 25 39 39 40 37 36 36 30 25 21 18 21 22 21 22 21 24 24 23 21 21 16 18 15 13 14 16 12
1 3 0 3 4 2 3 4 4 6 6 7 6 13 10 10 9 9 9 16 26 29 33 35 34 36 35 33 32 31 25 21 26 23 22 23 22 22 23 24 22 22 22 20 19 17 17 17 16
7 3 2 1 4 3 1 5 4 1 6 5 3 4 6 9 5 8 9 15 10 14 23 28 29 32 34 34 35 36 32 29 22 21 21 21 21 21 22 25 26 25 23 22 22 19 19 18 16
2 5 6 5 3 3 7 3 6 2 6 3 5 2 2 5 6 5 8 7 6 6 15 24 28 24 21 23 32 34 34 32 25 22 20 21 22 21 21 21 24 24 24 24 25 24 21 23 20
6 6 3 5 5 4 4 4 6 4 5 4 2 8 2 4 5 7 6 4 5 5 4 13 13 11 12 30 45 36 34 32 32 28 27 23 23 23 24 22 22 22 25 27 28 26 25 25 24
3 7 6 3 2 3 5 1 5 4 0 1 4 4 6 8 7 8 8 6 12 12 8 12 19 15 9 42 30 56 43 33 35 30 30 27 26 23 24 21 18 15 18 20 21 24 29 28 24
2 2 4 7 3 3 4 4 2 4 5 6 7 11 10 12 15 15 18 22 14 17 12 14 12 9 7 4 31 47 52 31 28 29 26 30 25 22 18 17 15 14 9 15 21 27 25 25 21
4 6 3 3 4 3 4 5 5 7 6 6 10 11 8 4 10 11 12 19 2 6 13 7 10 10 14 23 31 36 26 23 20 24 25 26 22 19 18 17 17 16 18 17 19 18 18 15 20
5 3 6 6 4 5 2 6 5 7 8 8 10 13 6 5 5 5 7 18 15 9 4 2 13 13 15 30 28 30 21 27 24 24 19 18 16 15 16 20 21 22 16 15 18 18 21 18 15
4 4 4 5 1 2 3 5 6 7 6 6 7 3 5 5 4 2 8 18 9 16 14 9 5 8 17 23 22 23 22 17 18 17 18 15 13 10 13 17 24 27 23 19 17 21 23 28 24
Wind_Direction
114 112 342 321 55 69 327 343 294 199 35 336 74 111 119 41 32 147 145 153 147 149 150 144 142 139 137 137 135 133 130 129 129 128 123 118 116 117 116 113 115 112 111 112 114 114 114 113 113
108 21 6 55 73 34 323 338 7 22 126 96 85 78 49 68 66 121 131 154 149 150 149 149 147 140 139 136 136 134 129 128 126 124 122 121 117 115 117 113 113 112 113 113 115 115 114 113 116
224 310 68 71 107 143 221 249 294 109 175 98 113 67 77 81 116 133 149 151 150 150 152 152 152 146 143 141 141 139 134 132 130 127 125 123 123 122 119 116 115 113 113 117 123 124 121 119 124
218 15 42 73 275 256 235 208 220 144 58 63 106 76 79 167 142 150 149 152 150 154 155 156 153 149 149 145 143 139 137 135 135 133 129 129 126 126 122 117 119 119 118 116 115 118 124 117 122
235 93 52 90 259 253 275 312 273 8 75 66 74 81 84 101 145 142 152 153 154 157 157 160 156 154 151 148 145 144 143 142 142 139 136 135 131 130 126 125 119 117 117 111 114 128 126 121 128
338 74 36 6 266 246 233 238 171 71 79 98 81 88 47 132 134 147 150 157 161 158 160 162 162 161 158 156 154 152 152 148 146 143 140 140 140 136 132 128 131 126 121 119 130 138 137 131 152
111 93 276 11 91 228 233 87 147 121 128 101 119 77 93 146 146 151 156 162 162 164 163 166 167 167 167 165 163 161 160 158 155 153 150 149 144 137 132 136 147 149 140 137 143 143 139 159 198
136 95 345 283 193 226 162 100 110 137 155 107 137 146 172 169 153 152 156 162 166 168 169 171 173 173 174 176 171 171 172 170 170 171 170 169 165 156 170 186 175 174 169 168 156 157 169 222 324
126 49 257 250 177 178 164 133 85 231 135 176 155 138 146 146 152 144 148 157 163 173 178 178 179 181 182 184 181 183 187 186 183 180 182 188 190 214 204 196 186 192 189 188 187 186 199 254 277
138 147 222 219 158 175 155 158 138 122 156 59 87 114 137 148 153 156 162 168 175 178 185 184 185 188 189 190 189 199 199 202 200 198 194 200 209 218 204 206 193 199 204 197 202 210 233 249 267
173 202 213 216 166 150 134 117 133 119 219 176 147 147 148 152 161 168 178 179 183 184 186 189 192 193 195 198 200 206 208 211 209 217 219 221 224 227 223 223 217 209 210 209 215 226 237 250 275
142 218 165 196 176 152 154 127 111 195 192 147 155 156 156 163 173 176 183 185 185 187 191 193 195 198 201 204 205 207 210 215 215 218 223 226 228 236 235 237 227 214 216 220 229 239 248 275 275
170 174 175 174 171 102 128 147 183 195 143 141 157 161 168 175 185 188 187 187 185 188 195 199 199 203 204 209 212 212 215 218 222 218 231 235 226 229 235 239 229 219 222 229 234 246 256 277 288
280 199 165 141 168 155 128 175 136 134 146 143 166 181 175 182 191 187 185 188 192 193 198 202 204 207 210 214 218 218 221 225 233 226 232 238 239 241 238 241 239 231 230 232 238 243 257 273 280
251 153 0 144 182 172 107 308 227 155 157 154 176 188 191 193 187 191 190 190 196 200 202 205 204 209 212 216 219 224 225 226 240 238 236 237 237 244 250 248 249 246 242 239 238 237 245 266 265
111 66 147 245 158 203 133 256 213 165 161 174 178 196 200 207 201 196 194 195 197 201 204 209 206 211 215 218 223 226 230 230 238 239 240 240 241 241 249 254 247 251 252 250 244 239 239 258 270
5 248 202 259 177 149 187 243 179 171 172 180 189 199 202 207 214 208 200 196 198 204 205 211 210 214 218 222 226 228 234 235 250 246 239 244 240 242 243 252 256 253 259 254 248 242 246 257 268
280 325 265 192 216 169 193 238 173 178 179 189 190 201 212 216 214 209 204 199 196 207 208 213 212 218 218 222 229 231 234 236 249 246 243 250 234 238 243 247 253 259 254 253 245 244 255 258 263
253 223 232 231 202 144 219 83 190 187 192 197 200 206 211 221 226 202 209 199 192 203 204 209 207 216 217 215 225 232 233 239 239 242 247 245 235 237 243 244 246 264 242 244 243 246 252 251 253
269 250 327 29 107 115 158 135 134 192 205 203 200 208 210 206 158 190 197 201 197 195 201 205 208 212 217 215 220 221 233 237 235 240 244 243 239 239 246 242 244 246 241 242 234 242 248 254 247
232 134 126 153 45 26 59 346 35 30 252 206 216 217 187 181 184 200 144 191 204 205 197 206 210 214 215 215 221 219 238 237 231 235 239 239 242 237 242 249 247 245 249 242 244 242 243 253 252
61 212 329 103 67 227 82 265 53 340 0 23 238 197 184 182 176 188 168 187 202 210 210 212 212 216 218 216 212 211 222 221 235 242 245 240 242 243 241 245 248 250 250 250 243 240 238 244 245
218 81 59 23 113 104 342 86 322 349 356 333 340 127 195 200 179 170 187 194 192 217 228 224 226 220 219 223 224 225 228 241 253 253 249 245 244 243 243 246 247 244 245 247 248 245 241 238 236
75 82 49 51 82 36 329 84 321 294 221 274 334 133 292 30 26 348 343 108 124 190 224 222 226 233 235 235 229 230 235 240 242 248 249 252 248 245 243 247 249 250 250 252 250 248 248 245 244
73 55 359 360 16 217 315 63 225 291 283 177 225 307 337 20 13 311 266 221 157 187 203 213 181 112 60 357 325 288 241 244 247 248 249 248 249 247 244 243 246 248 253 257 256 256 253 247 248
102 144 146 218 219 260 333 145 231 208 359 336 164 136 74 18 351 312 292 250 238 244 212 156 133 143 85 25 308 281 278 249 250 250 251 251 253 258 255 255 249 246 251 264 271 273 267 255 252
164 148 187 101 35 71 305 314 140 176 203 127 99 69 38 24 357 345 338 333 310 240 175 146 149 164 203 206 221 238 266 250 253 254 259 256 257 263 258 249 226 224 259 267 280 283 273 264 261
109 158 57 22 145 192 300 287 236 192 191 242 111 103 105 108 310 337 334 320 325 246 142 182 207 190 240 231 241 234 272 263 274 269 263 265 259 266 255 242 230 223 242 267 264 266 253 246 264
27 24 52 112 102 151 171 264 231 178 186 172 151 157 191 127 214 299 316 297 92 102 84 174 172 184 219 224 253 257 281 271 278 265 262 265 275 265 253 248 234 225 244 222 231 251 239 240 263
112 111 114 110 208 112 147 272 310 182 191 161 174 314 113 145 218 265 266 269 89 101 93 107 121 207 222 236 253 274 276 277 278 279 265 268 274 261 259 254 252 244 238 238 256 238 245 239 247